Taiseimaru — JL6483 — position and weather

sailwx.info

Track history (hours):
 
Tides and Currents Weather Stations Pressure Air Temp Water Temp Dewpoint Dewpoint Depression Visibility Wind Speed Wind Dir Waves Ship Positions

Taiseimaru

Last reported at 2014-Sep-03 08:33 UTC. Time now 2014-Sep-17 11:38 UTC.
Position N 34°35' E 134°48'.
Warning: this ship's position is 14 days out of date.

Length 84 m; draft 5 m.

Type: Cargo ship. MMSI: 431500568.

Date/timePositionNaut miles runAvg speedWind from/ knotsBaromVisibWave heightAir tempDewpointWater temp
2014-Sep-03 08:33N 34°35' E 134°48'1212.2
2014-Sep-03 07:33N 34°36' E 135°03'1211.6
2014-Sep-03 06:33N 34°37' E 135°17'7 7.3
2014-Sep-03 05:33N 34°35' E 135°26'0 0.0
2014-Sep-03 04:32N 34°35' E 135°26'0 0.0
2014-Sep-03 03:26N 34°35' E 135°26'0 0.0
2014-Sep-03 02:32N 34°35' E 135°26'0 0.0
2014-Sep-03 01:32N 34°35' E 135°26'0 0.0
2014-Sep-02 23:32N 34°35' E 135°26'0 0.0
2014-Sep-02 22:20N 34°35' E 135°26'0 0.0
2014-Sep-02 21:32N 34°35' E 135°26'0 0.0
2014-Sep-02 20:32N 34°35' E 135°26'0 0.0
2014-Sep-02 19:32N 34°35' E 135°26'0 0.0
2014-Sep-02 18:32N 34°35' E 135°26'0 0.0
2014-Sep-02 17:32N 34°35' E 135°26'0 0.0
2014-Sep-02 16:26N 34°35' E 135°26'0 0.0
2014-Sep-02 15:32N 34°35' E 135°26'0 0.0
2014-Sep-02 14:32N 34°35' E 135°26'0 0.0
2014-Sep-02 13:32N 34°35' E 135°26'0 0.0
2014-Sep-02 12:32N 34°35' E 135°26'0 0.0
2014-Sep-02 11:32N 34°35' E 135°26'0 0.0
2014-Sep-02 10:32N 34°35' E 135°26'0 0.0
2014-Sep-02 09:32N 34°35' E 135°26'0 0.0
2014-Sep-02 08:26N 34°35' E 135°26'0 0.0
2014-Sep-02 07:32N 34°35' E 135°26'0 0.0
2014-Sep-02 06:32N 34°35' E 135°26'0 0.0
2014-Sep-02 05:32N 34°35' E 135°26'0 0.0
2014-Sep-02 04:26N 34°35' E 135°26'0 0.0
2014-Sep-02 03:32N 34°35' E 135°26'0 0.0
2014-Sep-02 02:20N 34°35' E 135°26'0 0.0
2014-Sep-02 01:20N 34°35' E 135°26'0 0.0
2014-Sep-02 00:32N 34°35' E 135°26'0 0.0
2014-Sep-01 23:13N 34°35' E 135°26'2 3.2
2014-Sep-01 22:33N 34°36' E 135°23'0 0.0
2014-Sep-01 21:31N 34°36' E 135°23'0 0.0
2014-Sep-01 20:13N 34°36' E 135°23'0 0.0
2014-Sep-01 18:12N 34°36' E 135°23'0 0.0
2014-Sep-01 17:30N 34°36' E 135°23'0 0.1
2014-Sep-01 16:30N 34°36' E 135°23'0 0.1
2014-Sep-01 15:30N 34°36' E 135°23'0 0.0
2014-Sep-01 14:30N 34°36' E 135°23'0 0.0
2014-Sep-01 13:18N 34°36' E 135°23'0 0.0
2014-Sep-01 12:12N 34°36' E 135°23'0 0.0
2014-Sep-01 11:30N 34°36' E 135°23'0 0.0
2014-Sep-01 10:30N 34°36' E 135°23'0 0.0
2014-Sep-01 09:12N 34°36' E 135°23'0 0.0
2014-Sep-01 08:18N 34°36' E 135°23'0 0.0
2014-Sep-01 07:18N 34°36' E 135°23'0 0.1
2014-Sep-01 06:30N 34°36' E 135°23'0 0.0
2014-Sep-01 04:30N 34°36' E 135°23'0 0.0
2014-Sep-01 03:24N 34°36' E 135°23'0 0.0
2014-Sep-01 02:12N 34°36' E 135°23'0 0.0
2014-Sep-01 01:30N 34°36' E 135°23'0 0.0
2014-Sep-01 00:30N 34°36' E 135°23'0 0.0
2014-Aug-31 23:30N 34°36' E 135°23'0 0.0
2014-Aug-31 22:30N 34°36' E 135°23'0 0.0
2014-Aug-31 21:30N 34°36' E 135°23'0 0.0
2014-Aug-31 20:30N 34°36' E 135°23'0 0.0
2014-Aug-31 19:30N 34°36' E 135°23'0 0.0
2014-Aug-31 18:30N 34°36' E 135°23'0 0.0
2014-Aug-31 17:24N 34°36' E 135°23'0 0.0
2014-Aug-31 16:24N 34°36' E 135°23'0 0.0
2014-Aug-31 15:30N 34°36' E 135°23'0 0.0
2014-Aug-31 14:30N 34°36' E 135°23'0 0.0
2014-Aug-31 13:30N 34°36' E 135°23'0 0.0
2014-Aug-31 12:30N 34°36' E 135°23'0 0.0
2014-Aug-31 11:30N 34°36' E 135°23'0 0.0
2014-Aug-31 10:12N 34°36' E 135°23'0 0.0
2014-Aug-31 09:29N 34°36' E 135°23'0 0.1
2014-Aug-31 08:29N 34°36' E 135°23'0 0.0
2014-Aug-31 07:29N 34°36' E 135°23'0 0.0
2014-Aug-31 06:29N 34°36' E 135°23'0 0.0
2014-Aug-31 05:28N 34°36' E 135°23'8 8.8
2014-Aug-31 04:33N 34°31' E 135°15'1111.1
2014-Aug-31 03:33N 34°23' E 135°06'1110.5
2014-Aug-31 02:32N 34°13' E 134°60'1111.4
2014-Aug-31 01:33N 34°02' E 135°01'177 9.6
2014-Aug-30 07:03N 34°31' E 138°33'2910.2
2014-Aug-30 04:15N 34°44' E 139°04'811.4
2014-Aug-30 03:31N 34°51' E 139°09'1111.2
2014-Aug-30 02:30N 34°58' E 139°20'1010.3
2014-Aug-30 01:33N 35°03' E 139°31'1111.0
2014-Aug-30 00:33N 35°08' E 139°42'1010.4
2014-Aug-29 23:33N 35°19' E 139°44'10 9.6
2014-Aug-29 22:33N 35°28' E 139°43'0 0.0
2014-Aug-29 21:32N 35°28' E 139°43'0 0.0
2014-Aug-29 20:32N 35°28' E 139°43'0 0.0
2014-Aug-29 19:32N 35°28' E 139°43'0 0.0
2014-Aug-29 18:32N 35°28' E 139°43'0 0.0
2014-Aug-29 17:32N 35°28' E 139°43'0 0.0
2014-Aug-29 16:31N 35°28' E 139°43'0 0.0
2014-Aug-29 15:31N 35°28' E 139°43'0 0.0
2014-Aug-29 14:31N 35°28' E 139°43'0 0.0
2014-Aug-29 13:31N 35°28' E 139°43'0 0.0
2014-Aug-29 12:31N 35°28' E 139°43'0 0.0
2014-Aug-29 11:31N 35°28' E 139°43'0 0.0
2014-Aug-29 10:31N 35°28' E 139°43'0 0.0
2014-Aug-29 09:31N 35°28' E 139°43'0 0.3
2014-Aug-29 08:31N 35°28' E 139°42'0 0.0
2014-Aug-29 07:31N 35°28' E 139°42'0 0.0
2014-Aug-29 06:31N 35°28' E 139°42'0 0.0
2014-Aug-29 05:31N 35°28' E 139°42'0 0.0
2014-Aug-29 04:31N 35°28' E 139°42'0 0.0
2014-Aug-29 03:31N 35°28' E 139°42'0 0.0
2014-Aug-29 02:31N 35°28' E 139°42'0 0.0
2014-Aug-29 01:16N 35°28' E 139°42'0 0.0
2014-Aug-29 00:13N 35°28' E 139°42'0 0.0
2014-Aug-28 23:31N 35°28' E 139°42'0 0.0
2014-Aug-28 22:31N 35°28' E 139°42'0 0.0
2014-Aug-28 21:31N 35°28' E 139°42'0 0.0
2014-Aug-28 20:31N 35°28' E 139°42'0 0.0
2014-Aug-28 19:31N 35°28' E 139°42'0 0.0
2014-Aug-28 18:31N 35°28' E 139°42'0 0.0
2014-Aug-28 17:31N 35°28' E 139°42'0 0.0
2014-Aug-28 16:31N 35°28' E 139°42'0 0.0
2014-Aug-28 15:31N 35°28' E 139°42'0 0.0
2014-Aug-28 14:31N 35°28' E 139°42'0 0.0
2014-Aug-28 13:31N 35°28' E 139°42'0 0.0
2014-Aug-28 12:31N 35°28' E 139°42'3 3.2
2014-Aug-28 11:33N 35°26' E 139°44'2 1.5
2014-Aug-28 10:33N 35°24' E 139°45'0 0.0
2014-Aug-28 09:30N 35°24' E 139°45'0 0.1
2014-Aug-28 08:30N 35°24' E 139°45'0 0.0
2014-Aug-28 07:33N 35°24' E 139°45'0 0.0
2014-Aug-28 06:33N 35°24' E 139°45'0 0.0
2014-Aug-28 05:33N 35°24' E 139°45'0 0.0
2014-Aug-28 04:33N 35°24' E 139°45'0 0.0
2014-Aug-28 03:33N 35°24' E 139°45'0 0.0
2014-Aug-28 02:30N 35°24' E 139°45'0 0.0
2014-Aug-28 01:33N 35°24' E 139°45'0 0.0
2014-Aug-28 00:33N 35°24' E 139°45'0 0.0
2014-Aug-27 23:33N 35°24' E 139°45'0 0.0
2014-Aug-27 22:33N 35°24' E 139°45'0 0.0
2014-Aug-27 21:33N 35°24' E 139°45'0 0.0
2014-Aug-27 20:33N 35°24' E 139°45'0 0.0
2014-Aug-27 19:33N 35°24' E 139°45'0 0.0
2014-Aug-27 18:33N 35°24' E 139°45'0 0.0
2014-Aug-27 17:33N 35°24' E 139°45'0 0.0
2014-Aug-27 16:33N 35°24' E 139°45'0 0.0
2014-Aug-27 15:33N 35°24' E 139°45'0 0.0
2014-Aug-27 14:33N 35°24' E 139°45'0 0.0
2014-Aug-27 13:33N 35°24' E 139°45'0 0.0
2014-Aug-27 12:33N 35°24' E 139°45'0 0.0
2014-Aug-27 11:33N 35°24' E 139°45'0 0.0
2014-Aug-27 10:33N 35°24' E 139°45'0 0.0
2014-Aug-27 09:33N 35°24' E 139°45'0 0.0
2014-Aug-27 08:33N 35°24' E 139°45'0 0.0
2014-Aug-27 07:30N 35°24' E 139°45'0 0.1
2014-Aug-27 06:33N 35°24' E 139°45'0 0.0
2014-Aug-27 05:32N 35°24' E 139°45'0 0.0
2014-Aug-27 04:32N 35°24' E 139°45'0 0.0
2014-Aug-27 03:32N 35°24' E 139°45'0 0.0
2014-Aug-27 02:32N 35°24' E 139°45'0 0.0
2014-Aug-27 01:32N 35°24' E 139°45'0 0.0
2014-Aug-27 00:32N 35°24' E 139°45'0 0.0
2014-Aug-26 23:32N 35°24' E 139°45'0 0.0
2014-Aug-26 22:32N 35°24' E 139°45'0 0.0
2014-Aug-26 21:32N 35°24' E 139°45'0 0.0
2014-Aug-26 20:32N 35°24' E 139°45'0 0.0
2014-Aug-26 19:32N 35°24' E 139°45'0 0.0
2014-Aug-26 18:32N 35°24' E 139°45'0 0.0
2014-Aug-26 17:32N 35°24' E 139°45'0 0.0
2014-Aug-26 16:29N 35°24' E 139°45'0 0.0
2014-Aug-26 15:29N 35°24' E 139°45'0 0.0
2014-Aug-26 14:32N 35°24' E 139°45'0 0.0
2014-Aug-26 13:32N 35°24' E 139°45'0 0.0
2014-Aug-26 12:32N 35°24' E 139°45'0 0.0
2014-Aug-26 11:32N 35°24' E 139°45'0 0.0
2014-Aug-26 10:32N 35°24' E 139°45'0 0.0
2014-Aug-26 09:32N 35°24' E 139°45'3 2.6
2014-Aug-26 08:33N 35°26' E 139°43'4 3.9
2014-Aug-26 07:32N 35°29' E 139°39'0 0.0
2014-Aug-26 06:32N 35°29' E 139°39'0 0.0
2014-Aug-26 05:32N 35°29' E 139°39'0 0.0
2014-Aug-26 04:32N 35°29' E 139°39'0 0.0
2014-Aug-26 03:29N 35°29' E 139°39'0 0.0
2014-Aug-26 02:29N 35°29' E 139°39'0 0.0
2014-Aug-26 01:32N 35°29' E 139°39'0 0.0
2014-Aug-26 00:32N 35°29' E 139°39'0 0.0
2014-Aug-25 23:32N 35°29' E 139°39'3 3.1
2014-Aug-25 22:33N 35°27' E 139°42'4 4.1
2014-Aug-25 21:32N 35°23' E 139°45'0 0.0
2014-Aug-25 20:32N 35°23' E 139°45'0 0.0
2014-Aug-25 19:32N 35°23' E 139°45'0 0.0
2014-Aug-25 18:32N 35°23' E 139°45'0 0.0
2014-Aug-25 17:28N 35°23' E 139°45'0 0.0
2014-Aug-25 16:31N 35°23' E 139°45'0 0.0
2014-Aug-25 15:31N 35°23' E 139°45'0 0.0
2014-Aug-25 14:31N 35°23' E 139°45'0 0.0
2014-Aug-25 13:31N 35°23' E 139°45'0 0.0
2014-Aug-25 12:31N 35°23' E 139°45'0 0.1
2014-Aug-25 11:31N 35°23' E 139°45'5 5.3
2014-Aug-25 10:33N 35°18' E 139°44'10 9.8
2014-Aug-25 09:33N 35°09' E 139°45'1111.0
2014-Aug-25 08:33N 35°01' E 139°36'1312.3
2014-Aug-25 07:28N 34°52' E 139°23'  
Track history (hours):
 
Tides and Currents Weather Stations Pressure Air Temp Water Temp Dewpoint Dewpoint Depression Visibility Wind Speed Wind Dir Waves Ship Positions

Taiseimaru

Last reported at 2014-Sep-03 08:33 UTC. Time now 2014-Sep-17 11:38 UTC.
Position N 34°35' E 134°48'.
Warning: this ship's position is 14 days out of date.

Length 84 m; draft 5 m.

Type: Cargo ship. MMSI: 431500568.

Date/timePositionNaut miles runAvg speedWind from/ knotsBaromVisibWave heightAir tempDewpointWater temp
2014-Sep-03 08:33N 34°35' E 134°48'1212.2
2014-Sep-03 07:33N 34°36' E 135°03'1211.6
2014-Sep-03 06:33N 34°37' E 135°17'7 7.3
2014-Sep-03 05:33N 34°35' E 135°26'0 0.0
2014-Sep-03 04:32N 34°35' E 135°26'0 0.0
2014-Sep-03 03:26N 34°35' E 135°26'0 0.0
2014-Sep-03 02:32N 34°35' E 135°26'0 0.0
2014-Sep-03 01:32N 34°35' E 135°26'0 0.0
2014-Sep-02 23:32N 34°35' E 135°26'0 0.0
2014-Sep-02 22:20N 34°35' E 135°26'0 0.0
2014-Sep-02 21:32N 34°35' E 135°26'0 0.0
2014-Sep-02 20:32N 34°35' E 135°26'0 0.0
2014-Sep-02 19:32N 34°35' E 135°26'0 0.0
2014-Sep-02 18:32N 34°35' E 135°26'0 0.0
2014-Sep-02 17:32N 34°35' E 135°26'0 0.0
2014-Sep-02 16:26N 34°35' E 135°26'0 0.0
2014-Sep-02 15:32N 34°35' E 135°26'0 0.0
2014-Sep-02 14:32N 34°35' E 135°26'0 0.0
2014-Sep-02 13:32N 34°35' E 135°26'0 0.0
2014-Sep-02 12:32N 34°35' E 135°26'0 0.0
2014-Sep-02 11:32N 34°35' E 135°26'0 0.0
2014-Sep-02 10:32N 34°35' E 135°26'0 0.0
2014-Sep-02 09:32N 34°35' E 135°26'0 0.0
2014-Sep-02 08:26N 34°35' E 135°26'0 0.0
2014-Sep-02 07:32N 34°35' E 135°26'0 0.0
2014-Sep-02 06:32N 34°35' E 135°26'0 0.0
2014-Sep-02 05:32N 34°35' E 135°26'0 0.0
2014-Sep-02 04:26N 34°35' E 135°26'0 0.0
2014-Sep-02 03:32N 34°35' E 135°26'0 0.0
2014-Sep-02 02:20N 34°35' E 135°26'0 0.0
2014-Sep-02 01:20N 34°35' E 135°26'0 0.0
2014-Sep-02 00:32N 34°35' E 135°26'0 0.0
2014-Sep-01 23:13N 34°35' E 135°26'2 3.2
2014-Sep-01 22:33N 34°36' E 135°23'0 0.0
2014-Sep-01 21:31N 34°36' E 135°23'0 0.0
2014-Sep-01 20:13N 34°36' E 135°23'0 0.0
2014-Sep-01 18:12N 34°36' E 135°23'0 0.0
2014-Sep-01 17:30N 34°36' E 135°23'0 0.1
2014-Sep-01 16:30N 34°36' E 135°23'0 0.1
2014-Sep-01 15:30N 34°36' E 135°23'0 0.0
2014-Sep-01 14:30N 34°36' E 135°23'0 0.0
2014-Sep-01 13:18N 34°36' E 135°23'0 0.0
2014-Sep-01 12:12N 34°36' E 135°23'0 0.0
2014-Sep-01 11:30N 34°36' E 135°23'0 0.0
2014-Sep-01 10:30N 34°36' E 135°23'0 0.0
2014-Sep-01 09:12N 34°36' E 135°23'0 0.0
2014-Sep-01 08:18N 34°36' E 135°23'0 0.0
2014-Sep-01 07:18N 34°36' E 135°23'0 0.1
2014-Sep-01 06:30N 34°36' E 135°23'0 0.0
2014-Sep-01 04:30N 34°36' E 135°23'0 0.0
2014-Sep-01 03:24N 34°36' E 135°23'0 0.0
2014-Sep-01 02:12N 34°36' E 135°23'0 0.0
2014-Sep-01 01:30N 34°36' E 135°23'0 0.0
2014-Sep-01 00:30N 34°36' E 135°23'0 0.0
2014-Aug-31 23:30N 34°36' E 135°23'0 0.0
2014-Aug-31 22:30N 34°36' E 135°23'0 0.0
2014-Aug-31 21:30N 34°36' E 135°23'0 0.0
2014-Aug-31 20:30N 34°36' E 135°23'0 0.0
2014-Aug-31 19:30N 34°36' E 135°23'0 0.0
2014-Aug-31 18:30N 34°36' E 135°23'0 0.0
2014-Aug-31 17:24N 34°36' E 135°23'0 0.0
2014-Aug-31 16:24N 34°36' E 135°23'0 0.0
2014-Aug-31 15:30N 34°36' E 135°23'0 0.0
2014-Aug-31 14:30N 34°36' E 135°23'0 0.0
2014-Aug-31 13:30N 34°36' E 135°23'0 0.0
2014-Aug-31 12:30N 34°36' E 135°23'0 0.0
2014-Aug-31 11:30N 34°36' E 135°23'0 0.0
2014-Aug-31 10:12N 34°36' E 135°23'0 0.0
2014-Aug-31 09:29N 34°36' E 135°23'0 0.1
2014-Aug-31 08:29N 34°36' E 135°23'0 0.0
2014-Aug-31 07:29N 34°36' E 135°23'0 0.0
2014-Aug-31 06:29N 34°36' E 135°23'0 0.0
2014-Aug-31 05:28N 34°36' E 135°23'8 8.8
2014-Aug-31 04:33N 34°31' E 135°15'1111.1
2014-Aug-31 03:33N 34°23' E 135°06'1110.5
2014-Aug-31 02:32N 34°13' E 134°60'1111.4
2014-Aug-31 01:33N 34°02' E 135°01'177 9.6
2014-Aug-30 07:03N 34°31' E 138°33'2910.2
2014-Aug-30 04:15N 34°44' E 139°04'811.4
2014-Aug-30 03:31N 34°51' E 139°09'1111.2
2014-Aug-30 02:30N 34°58' E 139°20'1010.3
2014-Aug-30 01:33N 35°03' E 139°31'1111.0
2014-Aug-30 00:33N 35°08' E 139°42'1010.4
2014-Aug-29 23:33N 35°19' E 139°44'10 9.6
2014-Aug-29 22:33N 35°28' E 139°43'0 0.0
2014-Aug-29 21:32N 35°28' E 139°43'0 0.0
2014-Aug-29 20:32N 35°28' E 139°43'0 0.0
2014-Aug-29 19:32N 35°28' E 139°43'0 0.0
2014-Aug-29 18:32N 35°28' E 139°43'0 0.0
2014-Aug-29 17:32N 35°28' E 139°43'0 0.0
2014-Aug-29 16:31N 35°28' E 139°43'0 0.0
2014-Aug-29 15:31N 35°28' E 139°43'0 0.0
2014-Aug-29 14:31N 35°28' E 139°43'0 0.0
2014-Aug-29 13:31N 35°28' E 139°43'0 0.0
2014-Aug-29 12:31N 35°28' E 139°43'0 0.0
2014-Aug-29 11:31N 35°28' E 139°43'0 0.0
2014-Aug-29 10:31N 35°28' E 139°43'0 0.0
2014-Aug-29 09:31N 35°28' E 139°43'0 0.3
2014-Aug-29 08:31N 35°28' E 139°42'0 0.0
2014-Aug-29 07:31N 35°28' E 139°42'0 0.0
2014-Aug-29 06:31N 35°28' E 139°42'0 0.0
2014-Aug-29 05:31N 35°28' E 139°42'0 0.0
2014-Aug-29 04:31N 35°28' E 139°42'0 0.0
2014-Aug-29 03:31N 35°28' E 139°42'0 0.0
2014-Aug-29 02:31N 35°28' E 139°42'0 0.0
2014-Aug-29 01:16N 35°28' E 139°42'0 0.0
2014-Aug-29 00:13N 35°28' E 139°42'0 0.0
2014-Aug-28 23:31N 35°28' E 139°42'0 0.0
2014-Aug-28 22:31N 35°28' E 139°42'0 0.0
2014-Aug-28 21:31N 35°28' E 139°42'0 0.0
2014-Aug-28 20:31N 35°28' E 139°42'0 0.0
2014-Aug-28 19:31N 35°28' E 139°42'0 0.0
2014-Aug-28 18:31N 35°28' E 139°42'0 0.0
2014-Aug-28 17:31N 35°28' E 139°42'0 0.0
2014-Aug-28 16:31N 35°28' E 139°42'0 0.0
2014-Aug-28 15:31N 35°28' E 139°42'0 0.0
2014-Aug-28 14:31N 35°28' E 139°42'0 0.0
2014-Aug-28 13:31N 35°28' E 139°42'0 0.0
2014-Aug-28 12:31N 35°28' E 139°42'3 3.2
2014-Aug-28 11:33N 35°26' E 139°44'2 1.5
2014-Aug-28 10:33N 35°24' E 139°45'0 0.0
2014-Aug-28 09:30N 35°24' E 139°45'0 0.1
2014-Aug-28 08:30N 35°24' E 139°45'0 0.0
2014-Aug-28 07:33N 35°24' E 139°45'0 0.0
2014-Aug-28 06:33N 35°24' E 139°45'0 0.0
2014-Aug-28 05:33N 35°24' E 139°45'0 0.0
2014-Aug-28 04:33N 35°24' E 139°45'0 0.0
2014-Aug-28 03:33N 35°24' E 139°45'0 0.0
2014-Aug-28 02:30N 35°24' E 139°45'0 0.0
2014-Aug-28 01:33N 35°24' E 139°45'0 0.0
2014-Aug-28 00:33N 35°24' E 139°45'0 0.0
2014-Aug-27 23:33N 35°24' E 139°45'0 0.0
2014-Aug-27 22:33N 35°24' E 139°45'0 0.0
2014-Aug-27 21:33N 35°24' E 139°45'0 0.0
2014-Aug-27 20:33N 35°24' E 139°45'0 0.0
2014-Aug-27 19:33N 35°24' E 139°45'0 0.0
2014-Aug-27 18:33N 35°24' E 139°45'0 0.0
2014-Aug-27 17:33N 35°24' E 139°45'0 0.0
2014-Aug-27 16:33N 35°24' E 139°45'0 0.0
2014-Aug-27 15:33N 35°24' E 139°45'0 0.0
2014-Aug-27 14:33N 35°24' E 139°45'0 0.0
2014-Aug-27 13:33N 35°24' E 139°45'0 0.0
2014-Aug-27 12:33N 35°24' E 139°45'0 0.0
2014-Aug-27 11:33N 35°24' E 139°45'0 0.0
2014-Aug-27 10:33N 35°24' E 139°45'0 0.0
2014-Aug-27 09:33N 35°24' E 139°45'0 0.0
2014-Aug-27 08:33N 35°24' E 139°45'0 0.0
2014-Aug-27 07:30N 35°24' E 139°45'0 0.1
2014-Aug-27 06:33N 35°24' E 139°45'0 0.0
2014-Aug-27 05:32N 35°24' E 139°45'0 0.0
2014-Aug-27 04:32N 35°24' E 139°45'0 0.0
2014-Aug-27 03:32N 35°24' E 139°45'0 0.0
2014-Aug-27 02:32N 35°24' E 139°45'0 0.0
2014-Aug-27 01:32N 35°24' E 139°45'0 0.0
2014-Aug-27 00:32N 35°24' E 139°45'0 0.0
2014-Aug-26 23:32N 35°24' E 139°45'0 0.0
2014-Aug-26 22:32N 35°24' E 139°45'0 0.0
2014-Aug-26 21:32N 35°24' E 139°45'0 0.0
2014-Aug-26 20:32N 35°24' E 139°45'0 0.0
2014-Aug-26 19:32N 35°24' E 139°45'0 0.0
2014-Aug-26 18:32N 35°24' E 139°45'0 0.0
2014-Aug-26 17:32N 35°24' E 139°45'0 0.0
2014-Aug-26 16:29N 35°24' E 139°45'0 0.0
2014-Aug-26 15:29N 35°24' E 139°45'0 0.0
2014-Aug-26 14:32N 35°24' E 139°45'0 0.0
2014-Aug-26 13:32N 35°24' E 139°45'0 0.0
2014-Aug-26 12:32N 35°24' E 139°45'0 0.0
2014-Aug-26 11:32N 35°24' E 139°45'0 0.0
2014-Aug-26 10:32N 35°24' E 139°45'0 0.0
2014-Aug-26 09:32N 35°24' E 139°45'3 2.6
2014-Aug-26 08:33N 35°26' E 139°43'4 3.9
2014-Aug-26 07:32N 35°29' E 139°39'0 0.0
2014-Aug-26 06:32N 35°29' E 139°39'0 0.0
2014-Aug-26 05:32N 35°29' E 139°39'0 0.0
2014-Aug-26 04:32N 35°29' E 139°39'0 0.0
2014-Aug-26 03:29N 35°29' E 139°39'0 0.0
2014-Aug-26 02:29N 35°29' E 139°39'0 0.0
2014-Aug-26 01:32N 35°29' E 139°39'0 0.0
2014-Aug-26 00:32N 35°29' E 139°39'0 0.0
2014-Aug-25 23:32N 35°29' E 139°39'3 3.1
2014-Aug-25 22:33N 35°27' E 139°42'4 4.1
2014-Aug-25 21:32N 35°23' E 139°45'0 0.0
2014-Aug-25 20:32N 35°23' E 139°45'0 0.0
2014-Aug-25 19:32N 35°23' E 139°45'0 0.0
2014-Aug-25 18:32N 35°23' E 139°45'0 0.0
2014-Aug-25 17:28N 35°23' E 139°45'0 0.0
2014-Aug-25 16:31N 35°23' E 139°45'0 0.0
2014-Aug-25 15:31N 35°23' E 139°45'0 0.0
2014-Aug-25 14:31N 35°23' E 139°45'0 0.0
2014-Aug-25 13:31N 35°23' E 139°45'0 0.0
2014-Aug-25 12:31N 35°23' E 139°45'0 0.1
2014-Aug-25 11:31N 35°23' E 139°45'5 5.3
2014-Aug-25 10:33N 35°18' E 139°44'10 9.8
2014-Aug-25 09:33N 35°09' E 139°45'1111.0
2014-Aug-25 08:33N 35°01' E 139°36'1312.3
2014-Aug-25 07:28N 34°52' E 139°23'  

Dump ship's entire track history